This is the latest recevied weather packets stored in our database for station/object KK4XZ. If no packets are shown the sender has not sent any weather packets the latest 10 day(s).
| Time | Temp. | Humidity | Pressure | Rain* | Wind** | Luminosity | Snow |
|---|---|---|---|---|---|---|---|
| 1777718134 | 13.33° C | 97% | 1010.7 hPa | 0.76 mm | - | - | - |
| 1777717530 | 13.33° C | 97% | 1010.6 hPa | 0.76 mm | - | - | - |
| 1777716924 | 13.33° C | 97% | 1010.7 hPa | 0.76 mm | - | - | - |
| 1777716320 | 13.33° C | 97% | 1010.6 hPa | 0.76 mm | - | - | - |
| 1777715735 | 13.33° C | 97% | 1010.6 hPa | 1.02 mm | - | - | - |
| 1777715130 | 13.33° C | 97% | 1010.5 hPa | 1.27 mm | - | - | - |
| 1777714525 | 13.33° C | 97% | 1010.4 hPa | 1.52 mm | - | - | - |
| 1777713920 | 13.33° C | 97% | 1010.5 hPa | 1.78 mm | - | - | - |
| 1777713338 | 13.89° C | 97% | 1010.6 hPa | 1.78 mm | - | - | - |
| 1777712730 | 13.89° C | 96% | 1010.6 hPa | 1.52 mm | - | - | - |
| 1777712125 | 13.89° C | 96% | 1011 hPa | 1.27 mm | - | - | - |
| 1777711520 | 13.89° C | 96% | 1010.9 hPa | 0.76 mm | - | - | - |
| 1777710935 | 14.44° C | 96% | 1010.8 hPa | 0.51 mm | - | - | - |
| 1777710331 | 14.44° C | 96% | 1010.6 hPa | 0 mm | - | - | - |
| 1777709726 | 13.89° C | 96% | 1010.1 hPa | 0 mm | - | - | - |
| 1777709121 | 13.89° C | 96% | 1009.9 hPa | 0 mm | - | - | - |
| 1777708536 | 13.89° C | 96% | 1010 hPa | 0 mm | - | - | - |
| 1777707931 | 13.89° C | 96% | 1010 hPa | 0 mm | - | - | - |
| 1777707327 | 13.89° C | 96% | 1010.1 hPa | 0 mm | - | - | - |
| 1777706721 | 14.44° C | 96% | 1010.1 hPa | 0 mm | - | - | - |
| 1777706116 | 14.44° C | 96% | 1010.3 hPa | 0 mm | - | - | - |
| 1777705532 | 14.44° C | 96% | 1010.4 hPa | 0 mm | - | - | - |
| 1777704927 | 14.44° C | 96% | 1010.4 hPa | 0 mm | - | - | - |
| 1777704322 | 14.44° C | 96% | 1010.5 hPa | 0 mm | - | - | - |
| 1777703717 | 14.44° C | 96% | 1010.8 hPa | 0 mm | - | - | - |
* Rain latest hour (hover to see other rain measurements)
** Current wind speed in m/s (hover to see current wind gust speed)